User: anonymous   Login
Location: New Canada
(47.1017°N, 68.5042°W)
Time: 13:42:41
(UTC+00:00)
Language:

DX 1 - Orbit

View from above orbital plane
View from above orbital plane
View from above satellite
View from above satellite

Ground track
Ground track

The orbit data is extracted from the following two-line orbital elements,

1 40071U 14037C   23084.18010464  .00004356  00000-0  54701-3 0  9996
2 40071  98.3714 331.3510 0009173 128.4259 231.7798 14.82663698470925
Epoch (UTC): 25 March 2023 04:19:21
Eccentricity: 0.0009173
inclination: 98.3714°
perigee height: 614 km
apogee height: 627 km
right ascension of ascending node: 331.3510°
argument of perigee: 128.4259°
revolutions per day: 14.82663698
mean anomaly at epoch: 231.7798°
orbit number at epoch: 47092

The dashed part of the orbit path shows where the satellite is in the earth's shadow,  

DLR